{"data":{"norad_id":66288,"intl_designator":"2025-247Z","name":"STARLINK-34896","alt_names":[],"object_type":"PAYLOAD","status":"ACTIVE","operator":null,"country":"US","launch_date":"2025-10-31","launch_site_code":"AFWTR","launch_vehicle":null,"mission":null,"orbit_class":"UNKNOWN","rcs_meters":null,"size_class":null,"mass_kg":null,"dimensions":null,"purposes":["comms"],"wikipedia_slug":null,"has_3d_model":false,"image_url":null,"decayed_at":null,"tle_current":{"epoch":"2026-05-25T03:29:42.255744Z","epoch_age_seconds":55719,"freshness":"FRESH","line1":"1 66288U 25247Z   26145.14562796  .00020391  00000+0  61295-3 0  9998","line2":"2 66288  53.1587 195.3000 0001285  79.3333 280.7814 15.34402647 32756","mean_motion":15.34402647,"eccentricity":0.0001285,"inclination_deg":53.1587,"raan_deg":195.3,"arg_perigee_deg":79.3333,"mean_anomaly_deg":280.7814,"bstar":0.00061295,"rev_number":3275,"period_min":93.847596184445,"perigee_km":461.81632581668,"apogee_km":463.57441973649,"semimajor_km":6840.8323727766,"source":"CELESTRAK","updated_at":"2026-05-25T13:38:21.165066Z"}}}